Weather History for Franklin, VA

Change the Weather History Date:

Friday, June 6, 2014

  Actual Average (KSFQ) Record (KSFQ)
Temperature  
Mean Temperature 73 °F -  
Max Temperature 84 °F 82 °F 96 °F (2002)
Min Temperature 62 °F 61 °F 23 °F (1998)
Cooling Degree Days 8    
Growing Degree Days 23 (Base 50)    
Moisture  
Dew Point 58 °F    
Average Humidity 56    
Maximum Humidity 100    
Minimum Humidity 35    
Precipitation  
Precipitation 0.00 in - - ()
Sea Level Pressure  
Sea Level Pressure 29.92 in    
Wind  
Wind Speed 2 mph (NNE)    
Max Wind Speed 10 mph    
Max Gust Speed -    
Averages and records for this station are not official NWS values.
T = Trace of Precipitation, MM = Missing Value Source: NWS Daily Summary

Daily Weather History Graph

Daily Weather History Graph

Search for Another Location

Airport:

Trip Planner

Search our weather history database for the weather conditions in past years. The results will help you decide how hot, cold, wet, or windy it might be!

Date:

Astronomy

Jun. 06, 2014 Rise Set
Actual Time 5:48 AM EDT 8:23 PM EDT
Civil Twilight 5:18 AM EDT 8:54 PM EDT
Nautical Twilight 4:41 AM EDT 9:31 PM EDT
Astronomical Twilight 3:59 AM EDT 10:13 PM EDT
Moon 1:50 PM EDT (6/6) 1:29 AM EDT (6/6)
Length of Visible Light 15h 35m
Length of Day
14h 34m
First Quarter, 58% of the Moon is Illuminated
Jun 6
First Quarter
Jun 13
Full
Jun 19
Last Quarter
Jun 27
New
Jul 5
First Quarter

Hourly Weather History & Observations

Time (EDT) Temp. Heat Index Dew Point Humidity Pressure Visibility Wind Dir Wind Speed Gust Speed Precip Events Conditions
12:15 AM 69.8 °F - 66.2 °F 88% 29.88 in 0.2 mi Calm Calm - N/A   Unknown
12:35 AM 66.2 °F - 66.2 °F 100% 29.87 in 0.2 mi Calm Calm - N/A   Unknown
12:55 AM 66.2 °F - - N/A% 29.87 in 0.2 mi Calm Calm - N/A   Unknown
1:15 AM 64.4 °F - - N/A% 29.87 in 0.2 mi Calm Calm - N/A   Unknown
1:35 AM 64.4 °F - - N/A% 29.87 in 0.2 mi Calm Calm - N/A   Overcast
1:55 AM 66.2 °F - - N/A% 29.86 in 0.2 mi Calm Calm - N/A   Overcast
2:15 AM 66.2 °F - - N/A% 29.86 in 0.2 mi Calm Calm - N/A   Overcast
2:35 AM 64.4 °F - - N/A% 29.87 in 0.2 mi Calm Calm - N/A   Unknown
2:55 AM 64.4 °F - - N/A% 29.87 in 0.2 mi Calm Calm - N/A   Unknown
3:15 AM 62.6 °F - - N/A% 29.87 in 0.2 mi Calm Calm - N/A   Unknown
3:35 AM 62.6 °F - - N/A% 29.87 in 0.2 mi Calm Calm - N/A   Unknown
3:55 AM 62.6 °F - - N/A% 29.87 in 0.2 mi Calm Calm - N/A   Unknown
4:15 AM 62.6 °F - - N/A% 29.87 in 0.2 mi Calm Calm - N/A   Unknown
4:35 AM 62.6 °F - - N/A% 29.88 in 0.2 mi Calm Calm - N/A   Unknown
4:55 AM 62.6 °F - - N/A% 29.89 in 0.2 mi Calm Calm - N/A   Unknown
5:15 AM 62.6 °F - - N/A% 29.89 in 0.2 mi North 4.6 mph - N/A   Unknown
5:35 AM 62.6 °F - - N/A% 29.90 in 0.2 mi North 4.6 mph - N/A   Unknown
5:55 AM 62.6 °F - - N/A% 29.90 in 0.2 mi NE 3.5 mph - N/A   Unknown
6:15 AM 62.6 °F - - N/A% 29.91 in 0.2 mi Calm Calm - N/A   Unknown
6:35 AM 62.6 °F - - N/A% 29.92 in 0.2 mi Calm Calm - N/A   Unknown
6:55 AM 64.4 °F - - N/A% 29.91 in 0.2 mi Calm Calm - N/A   Unknown
7:15 AM 64.4 °F - - N/A% 29.92 in 0.2 mi North 3.5 mph - N/A   Unknown
7:35 AM 66.2 °F - - N/A% 29.92 in 0.2 mi North 3.5 mph - N/A   Unknown
7:55 AM 68.0 °F - 68.0 °F 100% 29.93 in 0.2 mi North 4.6 mph - N/A   Unknown
8:15 AM 69.8 °F - 62.6 °F 78% 29.93 in 0.2 mi NNE 6.9 mph - N/A   Unknown
8:35 AM 71.6 °F - 57.2 °F 60% 29.94 in 0.2 mi NE 10.4 mph - N/A   Unknown
8:55 AM 73.4 °F - 57.2 °F 57% 29.95 in 0.2 mi NE 9.2 mph - N/A   Unknown
9:15 AM 73.4 °F - 55.4 °F 53% 29.95 in 0.2 mi NNE 6.9 mph - N/A   Unknown
9:35 AM 75.2 °F - 55.4 °F 50% 29.95 in 0.2 mi NNE 8.1 mph - N/A   Unknown
9:55 AM 75.2 °F - 55.4 °F 50% 29.94 in 0.2 mi NNE 8.1 mph - N/A   Unknown
10:15 AM 77.0 °F - 55.4 °F 47% 29.95 in 0.2 mi NE 6.9 mph - N/A   Unknown
10:35 AM 77.0 °F - 55.4 °F 47% 29.94 in 0.2 mi NNE 5.8 mph - N/A   Unknown
10:55 AM 77.0 °F - 55.4 °F 47% 29.94 in 0.2 mi ENE 5.8 mph - N/A   Unknown
11:15 AM 78.8 °F - 55.4 °F 44% 29.95 in 0.2 mi NE 5.8 mph - N/A   Unknown
11:35 AM 78.8 °F - 55.4 °F 44% 29.94 in 0.2 mi ENE 4.6 mph - N/A   Unknown
11:55 AM 78.8 °F - 55.4 °F 44% 29.94 in 0.2 mi NNW 6.9 mph - N/A   Unknown
12:15 PM 78.8 °F - 55.4 °F 44% 29.94 in 0.2 mi NE 6.9 mph - N/A   Overcast
12:35 PM 78.8 °F - 53.6 °F 42% 29.94 in 0.2 mi NE 4.6 mph - N/A   Overcast
12:55 PM 80.6 °F 80.3 °F 53.6 °F 39% 29.94 in 0.2 mi NNE 3.5 mph - N/A   Unknown
1:15 PM 80.6 °F 80.3 °F 53.6 °F 39% 29.94 in 0.2 mi North 4.6 mph - N/A   Unknown
1:35 PM 80.6 °F 80.3 °F 53.6 °F 39% 29.93 in 0.2 mi North 4.6 mph - N/A   Unknown
1:55 PM 82.4 °F 81.4 °F 53.6 °F 37% 29.93 in 0.2 mi NNE 5.8 mph - N/A   Unknown
2:15 PM 82.4 °F - 51.8 °F 35% 29.92 in 0.2 mi WNW 4.6 mph - N/A   Unknown
2:35 PM 80.6 °F - 51.8 °F 37% 29.92 in 0.2 mi Calm Calm - N/A   Unknown
2:55 PM 84.2 °F 82.8 °F 53.6 °F 35% 29.92 in 0.2 mi NE 5.8 mph - N/A   Unknown
3:15 PM 82.4 °F 81.4 °F 53.6 °F 37% 29.91 in 0.2 mi ENE 3.5 mph - N/A   Unknown
3:35 PM 84.2 °F 83.0 °F 55.4 °F 37% 29.91 in 0.2 mi NNW 4.6 mph - N/A   Mostly Cloudy
3:55 PM 84.2 °F 82.8 °F 53.6 °F 35% 29.92 in 0.2 mi Calm Calm - N/A   Mostly Cloudy
4:15 PM 82.4 °F 81.7 °F 55.4 °F 39% 29.91 in 0.2 mi Calm Calm - N/A   Overcast
4:35 PM 82.4 °F 81.4 °F 53.6 °F 37% 29.92 in 0.2 mi Calm Calm - N/A   Overcast
4:55 PM 84.2 °F 83.0 °F 55.4 °F 37% 29.92 in 0.2 mi Calm Calm - N/A   Overcast
5:15 PM 82.4 °F 81.7 °F 55.4 °F 39% 29.92 in 0.2 mi NNE 5.8 mph - N/A   Overcast
5:35 PM 80.6 °F 80.8 °F 57.2 °F 45% 29.93 in 0.2 mi NNE 4.6 mph - N/A   Overcast
5:55 PM 82.4 °F 82.0 °F 57.2 °F 42% 29.92 in 0.2 mi ENE 4.6 mph - N/A   Overcast
6:15 PM 82.4 °F 81.7 °F 55.4 °F 39% 29.92 in 0.2 mi ENE 5.8 mph - N/A   Mostly Cloudy
6:35 PM 82.4 °F 82.0 °F 57.2 °F 42% 29.92 in 0.2 mi East 3.5 mph - N/A   Unknown
6:55 PM 82.4 °F 81.7 °F 55.4 °F 39% 29.93 in 0.2 mi Calm Calm - N/A   Unknown
7:15 PM 80.6 °F 81.5 °F 60.8 °F 51% 29.93 in 0.2 mi Calm Calm - N/A   Unknown
7:35 PM 80.6 °F 80.8 °F 57.2 °F 45% 29.93 in 0.2 mi Calm Calm - N/A   Unknown
7:55 PM 77.0 °F - 62.6 °F 61% 29.93 in 0.2 mi Calm Calm - N/A   Unknown
8:15 PM 75.2 °F - 62.6 °F 65% 29.93 in 0.2 mi Calm Calm - N/A   Unknown
8:35 PM 71.6 °F - 62.6 °F 73% 29.94 in 0.2 mi Calm Calm - N/A   Unknown
8:55 PM 73.4 °F - 64.4 °F 73% 29.95 in 0.2 mi SSE 3.5 mph - N/A   Unknown
9:15 PM 71.6 °F - 64.4 °F 78% 29.95 in 0.2 mi Calm Calm - N/A   Unknown
9:35 PM 69.8 °F - 64.4 °F 83% 29.96 in 0.2 mi Calm Calm - N/A   Mostly Cloudy
9:55 PM 69.8 °F - 64.4 °F 83% 29.97 in 0.2 mi Calm Calm - N/A   Mostly Cloudy
10:15 PM 69.8 °F - 64.4 °F 83% 29.97 in 0.2 mi Calm Calm - N/A   Mostly Cloudy
10:35 PM 66.2 °F - 64.4 °F 94% 29.99 in 0.2 mi NE 4.6 mph - N/A   Unknown
10:55 PM 66.2 °F - 64.4 °F 94% 29.99 in 0.2 mi Calm Calm - N/A   Unknown
11:15 PM 68.0 °F - 66.2 °F 94% 29.98 in 0.2 mi Calm Calm - N/A   Unknown
11:35 PM 69.8 °F - 64.4 °F 83% 29.98 in 0.2 mi Calm Calm - N/A   Unknown
11:55 PM 66.2 °F - 64.4 °F 94% 29.98 in 0.2 mi Calm Calm - N/A   Unknown